Location: Castelbiague
(43.0361°N, 0.9246°E)
Time: 15:37:09
(UTC+00:00)

SL-16 R/B - Pass Details

Date: 17 June 2021
Orbit: 842 x 847 km, 71.0° (Epoch: 30 July)

Event Time Altitude Azimuth Distance (km) Brightness Sun altitude
Exits shadow 23:06:19 25° 106° (ESE) 1,646 3.4 -22.5°
Maximum altitude 23:06:33 25° 102° (ESE) 1,644 3.5 -22.5°
Drops below altitude 10° 23:11:04 10° 49° (NE) 2,470 5.0 -22.7°
Sets 23:13:54 0° 37° (NE) 3,409 6.0 -22.8°
